TimeMST,TemperatureF,Dew PointF,Humidity,Sea Level PressureIn,VisibilityMPH,Wind Direction,Wind SpeedMPH,Gust SpeedMPH,PrecipitationIn,Events,Conditions,WindDirDegrees,DateUTC
12:15 AM,17.6,14.0,86,30.21,10.0,NNW,4.6,-,N/A,,Mostly Cloudy,330,2013-11-06 07:15:00
12:35 AM,17.6,14.0,86,30.21,10.0,WNW,4.6,-,N/A,,Overcast,300,2013-11-06 07:35:00
12:55 AM,19.4,14.0,80,30.20,10.0,NW,4.6,-,N/A,,Overcast,320,2013-11-06 07:55:00
1:15 AM,19.4,14.0,80,30.20,10.0,WNW,3.5,-,N/A,,Overcast,290,2013-11-06 08:15:00
1:35 AM,19.4,14.0,80,30.20,10.0,West,4.6,-,N/A,,Mostly Cloudy,260,2013-11-06 08:35:00
1:55 AM,17.6,14.0,86,30.21,10.0,Calm,Calm,-,N/A,,Scattered Clouds,0,2013-11-06 08:55:00
2:15 AM,19.4,14.0,80,30.22,10.0,West,5.8,-,N/A,,Mostly Cloudy,280,2013-11-06 09:15:00
2:35 AM,19.4,14.0,80,30.22,10.0,Calm,Calm,-,N/A,,Overcast,0,2013-11-06 09:35:00
2:55 AM,19.4,14.0,80,30.22,10.0,West,5.8,-,N/A,,Overcast,270,2013-11-06 09:55:00
3:15 AM,19.4,15.8,86,30.22,10.0,West,5.8,-,N/A,,Overcast,260,2013-11-06 10:15:00
3:35 AM,21.2,17.6,86,30.22,7.0,WNW,3.5,-,N/A,Snow,Light Snow,290,2013-11-06 10:35:00
3:55 AM,21.2,17.6,86,30.22,5.0,Calm,Calm,-,N/A,Snow,Light Snow,0,2013-11-06 10:55:00
4:15 AM,21.2,19.4,93,30.22,7.0,Calm,Calm,-,N/A,,Overcast,0,2013-11-06 11:15:00
4:35 AM,21.2,19.4,93,30.22,10.0,Calm,Calm,-,N/A,,Overcast,0,2013-11-06 11:35:00
4:55 AM,21.2,19.4,93,30.23,10.0,NE,3.5,-,N/A,,Overcast,50,2013-11-06 11:55:00
5:15 AM,19.4,19.4,100,30.23,10.0,Calm,Calm,-,N/A,,Overcast,0,2013-11-06 12:15:00
5:35 AM,21.2,19.4,93,30.23,7.0,Calm,Calm,-,N/A,,Overcast,0,2013-11-06 12:35:00
5:55 AM,19.4,19.4,100,30.23,10.0,Calm,Calm,-,N/A,,Overcast,0,2013-11-06 12:55:00
6:15 AM,19.4,17.6,93,30.23,10.0,West,3.5,-,N/A,,Mostly Cloudy,270,2013-11-06 13:15:00
6:35 AM,17.6,17.6,100,30.23,10.0,Calm,Calm,-,N/A,,Scattered Clouds,0,2013-11-06 13:35:00
6:55 AM,17.6,17.6,100,30.24,10.0,West,4.6,-,N/A,,Scattered Clouds,280,2013-11-06 13:55:00
7:15 AM,17.6,17.6,100,30.24,10.0,Calm,Calm,-,N/A,,Mostly Cloudy,0,2013-11-06 14:15:00
7:35 AM,19.4,19.4,100,30.25,10.0,WNW,3.5,-,N/A,,Mostly Cloudy,290,2013-11-06 14:35:00
7:55 AM,19.4,19.4,100,30.26,10.0,Calm,Calm,-,N/A,,Scattered Clouds,0,2013-11-06 14:55:00
8:15 AM,21.2,19.4,93,30.27,7.0,Calm,Calm,-,N/A,,Mostly Cloudy,0,2013-11-06 15:15:00
8:35 AM,24.8,21.2,86,30.27,10.0,Calm,Calm,-,N/A,,Scattered Clouds,0,2013-11-06 15:35:00
8:55 AM,26.6,23.0,86,30.28,10.0,NW,3.5,-,N/A,,Clear,310,2013-11-06 15:55:00
9:15 AM,28.4,21.2,74,30.28,10.0,NW,3.5,-,N/A,,Clear,320,2013-11-06 16:15:00
9:35 AM,30.2,21.2,69,30.28,10.0,WNW,5.8,-,N/A,,Clear,290,2013-11-06 16:35:00
9:55 AM,30.2,21.2,69,30.29,10.0,NW,8.1,-,N/A,,Clear,310,2013-11-06 16:55:00
10:15 AM,32.0,21.2,64,30.29,10.0,WNW,10.4,16.1,N/A,,Clear,300,2013-11-06 17:15:00
10:35 AM,32.0,23.0,69,30.29,10.0,NW,13.8,-,N/A,,Clear,320,2013-11-06 17:35:00
10:55 AM,33.8,21.2,60,30.29,10.0,WNW,12.7,24.2,N/A,,Clear,300,2013-11-06 17:55:00
11:15 AM,33.8,21.2,60,30.29,10.0,WNW,17.3,26.5,N/A,,Scattered Clouds,300,2013-11-06 18:15:00
11:35 AM,35.6,21.2,56,30.29,10.0,WNW,16.1,26.5,N/A,,Scattered Clouds,290,2013-11-06 18:35:00
11:55 AM,35.6,21.2,56,30.29,10.0,NW,21.9,29.9,N/A,,Scattered Clouds,310,2013-11-06 18:55:00
12:15 PM,35.6,21.2,56,30.28,10.0,NW,21.9,28.8,N/A,,Mostly Cloudy,310,2013-11-06 19:15:00
12:35 PM,35.6,21.2,56,30.27,10.0,WNW,23.0,33.4,N/A,,Scattered Clouds,300,2013-11-06 19:35:00
12:55 PM,35.6,21.2,56,30.28,10.0,NW,26.5,33.4,N/A,,Mostly Cloudy,310,2013-11-06 19:55:00
1:15 PM,37.4,21.2,52,30.28,10.0,NW,27.6,34.5,N/A,,Mostly Cloudy,320,2013-11-06 20:15:00
1:35 PM,37.4,21.2,52,30.28,10.0,NW,23.0,32.2,N/A,,Mostly Cloudy,320,2013-11-06 20:35:00
1:55 PM,37.4,21.2,52,30.29,10.0,NW,26.5,31.1,N/A,,Mostly Cloudy,310,2013-11-06 20:55:00
2:15 PM,35.6,21.2,56,30.29,10.0,NW,21.9,33.4,N/A,,Mostly Cloudy,310,2013-11-06 21:15:00
2:35 PM,35.6,21.2,56,30.29,10.0,WNW,25.3,32.2,N/A,,Mostly Cloudy,300,2013-11-06 21:35:00
2:55 PM,35.6,21.2,56,30.29,10.0,WNW,24.2,33.4,N/A,,Mostly Cloudy,300,2013-11-06 21:55:00
3:15 PM,35.6,21.2,56,30.30,10.0,WNW,20.7,26.5,N/A,,Mostly Cloudy,290,2013-11-06 22:15:00
3:35 PM,35.6,21.2,56,30.31,10.0,WNW,18.4,26.5,N/A,,Overcast,300,2013-11-06 22:35:00
3:55 PM,35.6,21.2,56,30.32,10.0,WNW,19.6,26.5,N/A,,Overcast,300,2013-11-06 22:55:00
4:15 PM,33.8,21.2,60,30.32,10.0,NW,18.4,25.3,N/A,,Mostly Cloudy,320,2013-11-06 23:15:00
4:35 PM,32.0,21.2,64,30.33,10.0,WNW,15.0,21.9,N/A,,Scattered Clouds,300,2013-11-06 23:35:00
4:55 PM,32.0,23.0,69,30.34,10.0,WNW,15.0,-,N/A,,Scattered Clouds,300,2013-11-06 23:55:00
5:15 PM,30.2,23.0,75,30.34,10.0,NW,11.5,-,N/A,,Scattered Clouds,320,2013-11-07 00:15:00
5:35 PM,30.2,21.2,69,30.34,10.0,NW,8.1,-,N/A,,Clear,320,2013-11-07 00:35:00
5:55 PM,28.4,21.2,74,30.35,10.0,Calm,Calm,-,N/A,,Mostly Cloudy,0,2013-11-07 00:55:00
6:15 PM,28.4,23.0,80,30.35,10.0,Calm,Calm,-,N/A,,Overcast,0,2013-11-07 01:15:00
6:35 PM,28.4,21.2,74,30.35,10.0,Calm,Calm,-,N/A,,Mostly Cloudy,0,2013-11-07 01:35:00
6:55 PM,28.4,23.0,80,30.36,10.0,Calm,Calm,-,N/A,,Overcast,0,2013-11-07 01:55:00
7:15 PM,30.2,23.0,75,30.37,10.0,Calm,Calm,-,N/A,,Overcast,0,2013-11-07 02:15:00
7:35 PM,30.2,23.0,75,30.37,10.0,Calm,Calm,-,N/A,,Overcast,0,2013-11-07 02:35:00
7:55 PM,30.2,23.0,75,30.37,10.0,WSW,3.5,-,N/A,,Overcast,240,2013-11-07 02:55:00
8:15 PM,30.2,23.0,75,30.37,10.0,WNW,3.5,-,N/A,,Overcast,290,2013-11-07 03:15:00
8:35 PM,30.2,23.0,75,30.38,10.0,West,3.5,-,N/A,,Overcast,280,2013-11-07 03:35:00
8:55 PM,30.2,24.8,80,30.38,10.0,WNW,3.5,-,N/A,,Overcast,300,2013-11-07 03:55:00
9:15 PM,30.2,24.8,80,30.39,10.0,West,3.5,-,N/A,,Overcast,280,2013-11-07 04:15:00
9:35 PM,30.2,24.8,80,30.39,10.0,West,3.5,-,N/A,,Overcast,260,2013-11-07 04:35:00
9:55 PM,30.2,24.8,80,30.39,10.0,West,4.6,-,N/A,,Overcast,260,2013-11-07 04:55:00
10:15 PM,30.2,24.8,80,30.39,10.0,WSW,3.5,-,N/A,,Overcast,250,2013-11-07 05:15:00
10:35 PM,30.2,24.8,80,30.38,10.0,Calm,Calm,-,N/A,,Mostly Cloudy,0,2013-11-07 05:35:00
10:55 PM,28.4,24.8,86,30.39,10.0,WSW,3.5,-,N/A,,Clear,250,2013-11-07 05:55:00
11:15 PM,26.6,24.8,93,30.40,10.0,West,3.5,-,N/A,,Mostly Cloudy,270,2013-11-07 06:15:00
11:35 PM,26.6,23.0,86,30.40,10.0,WNW,3.5,-,N/A,,Overcast,290,2013-11-07 06:35:00
11:55 PM,28.4,26.6,93,30.40,10.0,Calm,Calm,-,N/A,,Overcast,0,2013-11-07 06:55:00